Location: Unspecified
(0.0000°N, 0.0000°E)
Time: 23:20:34
(UTC+00:00)

SRMSAT - Pass Details

Date: 21 July 2019
Orbit: 848 x 866 km, 20.0° (Epoch: 16 August)

Event Time Altitude Azimuth Distance (km) Brightness Sun altitude
Exits shadow 04:49:59 17° 295° (WNW) 1,999 ? -17.9°
Maximum altitude 04:54:37 82° 21° (NNE) 853 ? -16.8°
Drops below altitude 10° 05:00:32 10° 109° (ESE) 2,459 ? -15.4°
Sets 05:03:06 0° 110° (ESE) 3,396 ? -14.8°
